Home > Weather > Faro > Past weeks

Flag for Portugal Past Weather in Faro, Portugal — Yesterday and Last 2 Weeks

Now
64 °F

Passing clouds.


Feels Like: 64 °F
Forecast: 58 / 69 °F
Wind: 8 mph from Southwest

Location: Faro / Aeroporto

Current Time: May 26, 2016 at 11:46:01 AM

Latest Report: May 26, 2016 at 11:00 AM


Visibility: N/A

Pressure: 29.95 "Hg

Humidity: 78%

Dew Point: 57 °F

Location of FaroLocation

Past Weather in Faro — Graph

°F

Faro Temperature Yesterday

Maximum temperature yesterday: 68 °F (at 12:30 PM)
Minimum temperature yesterday: 59 °F (at 4:00 AM)
Average temperature yesterday: 64 °F

High & Low Weather Summary for the Past Weeks

 TemperatureHumidityPressure
High82 °F (May 20, 9:30 AM)94% (May 11, 11:30 AM)30.18 "Hg (May 11, 11:30 AM)
Low54 °F (May 13, 4:30 AM)30% (May 23, 3:00 PM)29.65 "Hg (May 11, 10:00 AM)
Average66 °F71%30.01 "Hg
* Reported May 11 10:00 AM — May 26 10:30 AM, Faro, Weather by CustomWeather, © 2016

Note: Actual official high and low records may vary slightly from our data, if they occured in-between our weather recording intervals... More about our weather records

Advertising

Faro Weather History for the Previous 24 Hours

Scroll right to see more
 ConditionsComfort  
Time TempWeatherWind HumidityBarometerVisibility
10:30 AM
Thu, May 26
64 °FPassing clouds.10 mph73%29.95 "HgN/A
10:00 AM64 °FPassing clouds.7 mph73%29.95 "HgN/A
9:30 AM64 °FPassing clouds.7 mph73%29.95 "HgN/A
9:00 AM64 °FPassing clouds.5 mph73%29.92 "HgN/A
8:30 AM61 °FPassing clouds.5 mph77%29.92 "HgN/A
8:00 AM61 °FSunny.5 mph83%29.92 "Hg10 mi
7:30 AM61 °FSunny.3 mph83%29.92 "Hg10 mi
7:00 AM57 °FPassing clouds.5 mph94%29.92 "HgN/A
6:30 AM57 °FPassing clouds.5 mph94%29.89 "HgN/A
6:00 AM57 °FClear.6 mph94%29.89 "Hg10 mi
5:30 AM57 °FClear.6 mph94%29.89 "Hg10 mi
5:00 AM59 °FClear.7 mph88%29.89 "Hg10 mi
4:30 AM59 °FClear.8 mph88%29.89 "Hg10 mi
4:00 AM59 °FClear.6 mph88%29.89 "Hg10 mi
3:30 AM59 °FClear.5 mph88%29.89 "Hg10 mi
3:00 AM59 °FClear.5 mph88%29.89 "Hg10 mi
2:30 AM61 °FClear.8 mph83%29.89 "Hg10 mi
2:00 AM61 °FClear.9 mph83%29.89 "Hg10 mi
1:30 AM61 °FClear.8 mph83%29.89 "Hg10 mi
1:00 AM63 °FClear.12 mph77%29.89 "Hg10 mi
12:30 AM63 °FClear.10 mph77%29.92 "Hg10 mi
12:00 AM63 °FClear.12 mph77%29.92 "Hg10 mi
11:30 PM
Wed, May 25
63 °FClear.14 mph83%29.92 "Hg10 mi
11:00 PM63 °FClear.14 mph83%29.92 "Hg10 mi
10:30 PM63 °FClear.14 mph88%29.89 "Hg10 mi
10:00 PM63 °FClear.14 mph88%29.89 "Hg10 mi
9:30 PM64 °FSunny.13 mph78%29.89 "Hg10 mi
9:00 PM64 °FSunny.13 mph78%29.89 "Hg10 mi
8:30 PM64 °FSunny.14 mph78%29.89 "Hg10 mi
8:00 PM64 °FSunny.14 mph78%29.89 "Hg10 mi
7:30 PM64 °FSunny.14 mph78%29.89 "Hg10 mi
7:00 PM66 °FSunny.14 mph78%29.89 "Hg10 mi
6:30 PM66 °FSunny.15 mph78%29.89 "Hg10 mi
6:00 PM66 °FSunny.14 mph78%29.89 "Hg10 mi
5:30 PM66 °FPassing clouds.14 mph73%29.89 "HgN/A
5:00 PM66 °FPassing clouds.13 mph73%29.89 "HgN/A
4:30 PM68 °FSunny.14 mph73%29.89 "Hg10 mi
4:00 PM68 °FPassing clouds.14 mph69%29.89 "HgN/A
3:30 PM68 °FPassing clouds.13 mph69%29.92 "HgN/A
3:00 PM68 °FPassing clouds.15 mph69%29.92 "HgN/A
2:30 PM68 °FPassing clouds.14 mph69%29.92 "HgN/A
2:00 PM68 °FPassing clouds.13 mph69%29.92 "HgN/A
1:30 PM68 °FPassing clouds.12 mph69%29.95 "HgN/A
1:00 PM66 °FPassing clouds.12 mph73%29.95 "HgN/A
12:30 PM68 °FPassing clouds.10 mph69%29.95 "HgN/A
12:00 PM66 °FPassing clouds.10 mph68%29.95 "HgN/A
11:30 AM66 °FPassing clouds.8 mph78%29.95 "HgN/A
11:00 AM66 °FPassing clouds.8 mph78%29.95 "HgN/A
Weather by CustomWeather, © 2016

See weather overviewHow to use our weather pages